Location: La Comballaz
(46.3780°N, 7.0817°E)
Time: 11:59:00
(UTC+00:00)

Cosmos 1455 - Pass Details

Date: 09 April 2020
Orbit: 498 x 523 km, 82.5° (Epoch: 26 May)

Event Time Altitude Azimuth Distance (km) Brightness Sun altitude
Exits shadow 19:56:16 15° 58° (ENE) 1,478 4.3 -17.4°
Drops below altitude 10° 19:57:23 10° 43° (NE) 1,755 4.8 -17.6°
Sets 20:00:01 0° 25° (NNE) 2,653 5.9 -17.9°
